[[{"header":{"parameterUnit":"m.s-1","parameterCategory":1,"la1":30.2991,"la2":30.254,"lo1":-89.0895,"lo2":-89.0444,"dy":0.0017,"dx":0.0017,"nx":28,"ny":28,"refTime":"2025-06-20T03:00:00:Z","depth":0,"parameterNumber":2,"parameterNumberName":"U-component_of_WINDS"},"data":[0,0,0,0,0,0,0,0,0,0,0,0,0,0,0,0,0,0,0,0,0,0,0,0,0,0,0,0,0,0,0,0,0,0,0,0,0,0,0,0,0,0,0,0,0,0,0,0,0,0,0,0,0,0,0,0,0,0,1.773,1.7731,0,1.7833,1.7834,1.7835,1.7784,1.7781,1.7779,1.7776,1.7885,1.789,1.7896,0,0,0,0,0,0,0,0,0,0,0,0,0,1.7493,1.7498,1.773,1.7732,1.7733,1.7833,1.7834,1.7836,1.7784,1.7781,1.7778,1.7775,1.7883,1.789,1.7896,0,0,0,0,0,0,0,0,0,0,0,0,0,1.7596,1.7499,1.773,1.7719,1.7719,1.7832,1.7834,1.7836,1.7785,1.7781,1.7777,1.7773,1.7881,1.7889,1.7897,1.8028,0,0,1.7922,1.7925,0,0,0,0,0,0,0,0,1.759,1.7605,1.772,1.772,1.772,1.7791,1.779,1.79,1.7786,1.776,1.7776,1.7771,1.7857,1.7867,1.7895,1.8033,1.8038,1.7922,1.7927,1.7931,1.7933,0,0,0,0,0,0,0,1.7583,1.76,1.7771,1.7721,1.7722,1.771,1.772,1.7811,1.783,1.7762,1.7759,1.7771,1.7857,1.7888,1.7898,1.8039,1.7922,1.7929,1.7934,1.7938,1.8289,1.8293,0,0,0,0,0,0,1.7576,1.7595,1.7768,1.7774,1.7644,1.7718,1.7729,1.7773,1.7829,1.7834,1.7775,1.7769,1.7876,1.7888,1.7901,1.8058,1.7931,1.7938,1.7943,1.8285,1.829,1.8295,0,0,0,0,0,0,1.7571,1.7592,1.7764,1.7683,1.7704,1.7726,1.7776,1.7777,1.7808,1.7839,1.7842,1.7802,1.7873,1.789,1.7996,1.8061,1.7942,1.7949,1.8279,1.8286,1.8293,1.8373,0,0,0,0,0,0,1.7565,1.7591,1.764,1.7685,1.7709,1.7856,1.778,1.7782,1.7821,1.7814,1.7866,1.787,1.7871,1.7985,1.8004,1.807,1.7956,1.8274,1.8283,1.829,1.8365,1.8382,1.8396,0,0,0,0,0,1.7556,1.7659,1.7643,1.7664,1.7771,1.786,1.7874,1.7872,1.7827,1.7877,1.7897,1.7869,1.8051,1.7996,1.8018,1.8087,1.827,1.828,1.829,1.8358,1.8379,1.8396,0,0,0,0,0,0,1.7623,1.7665,1.7647,1.7767,1.781,1.7851,1.7915,1.7894,1.7952,1.7943,1.7939,1.7951,1.8062,1.8085,1.8023,1.8217,1.8153,1.8168,1.8198,1.8217,1.8233,1.8225,1.7962,0,0,0,0,0,1.7651,1.7719,1.7753,1.7856,1.7878,1.7893,1.7932,1.7926,1.7971,1.799,1.8017,1.8063,1.813,1.8175,1.8239,1.8368,1.8378,1.8426,1.8442,1.8455,1.8468,1.8538,1.8559,1.8328,1.8328,1.8328,0,0,1.7712,1.7743,1.7786,1.787,1.7903,1.7975,1.7909,1.7987,1.8041,1.8002,1.8104,1.8126,1.8177,1.8295,1.8349,1.8318,1.8534,1.8467,1.8477,1.8484,1.855,1.8572,1.8592,1.8335,1.8334,1.8333,0,0,1.7857,1.7888,1.7977,1.8011,1.806,1.8069,1.8091,1.8135,1.8147,1.8249,1.8222,1.8286,1.8402,1.8439,1.8473,1.8633,1.8609,1.8653,1.8736,1.8804,1.8823,1.8839,1.8896,1.8916,1.8666,1.8667,1.8667,0,1.7926,1.8032,1.8026,1.8106,1.8144,1.8111,1.8202,1.8235,1.8304,1.8331,1.8295,1.844,1.8472,1.8599,1.8637,1.8666,1.8691,1.8648,1.882,1.8836,1.8851,1.8906,1.8927,1.8672,1.8671,1.8671,1.867,0,1.8114,1.8188,1.8254,1.8319,1.8365,1.845,1.8458,1.8505,1.8495,1.8508,1.8613,1.8649,1.872,1.8749,1.8742,1.8875,1.8854,1.882,1.8756,1.8879,1.893,1.8951,1.8679,1.8677,1.8676,1.8674,0,0,1.8306,1.8366,1.839,1.842,1.8472,1.8529,1.8613,1.8681,1.8721,1.877,1.8841,1.8939,1.8907,1.8946,1.8942,1.9002,1.9126,1.8959,1.8961,1.8989,1.9276,1.9302,1.9326,1.911,1.9114,1.9117,1.9271,0,1.8456,1.8601,1.8598,1.8734,1.8802,1.8771,1.8844,1.8885,1.8899,1.896,1.8976,1.9046,1.8998,1.9021,1.9079,1.9098,1.9183,1.9087,1.9177,1.918,1.9166,1.9353,1.9381,1.9524,1.9291,1.9295,1.9297,0,1.865,1.8703,1.8846,1.8887,1.8916,1.8982,1.9043,1.9101,1.9147,1.9153,1.9196,1.9182,1.9268,1.9201,1.932,1.9255,1.9292,1.9307,1.9312,1.9321,1.9246,1.9367,1.957,1.9592,1.9328,1.9326,1.9324,0,1.8776,1.8884,1.8982,1.9008,1.9059,1.9106,1.913,1.9171,1.9212,1.9266,1.9293,1.9357,1.9392,1.9442,1.9446,1.9397,1.9567,1.95,1.9575,1.9575,1.9612,1.961,1.9825,1.9635,1.9635,1.9635,1.9634,0,1.8944,1.9033,1.904,1.9101,1.9199,1.9194,1.9292,1.9311,1.9348,1.9413,1.9391,1.9452,1.9454,1.9517,1.9521,1.9619,1.9635,1.9643,1.9643,1.9645,1.9644,1.967,1.966,1.964,1.9639,1.9638,1.9637,0,1.9102,1.911,1.9216,1.9255,1.9267,1.9338,1.9371,1.943,1.9441,1.9524,1.9543,1.9562,1.9635,1.9643,1.9729,1.9732,1.985,1.9839,1.9834,1.9833,1.9907,1.99,2.0146,2.0178,1.9967,1.9969,1.9971,0,1.9209,1.9276,1.9322,1.9363,1.9388,1.9455,1.9496,1.9494,1.9538,1.9594,1.9647,1.9717,1.9773,1.9892,1.9914,1.9979,1.997,2.0052,1.998,1.998,1.9972,1.9968,1.9975,2.0066,2.0068,2.007,2.0072,0,1.9398,1.9398,1.9457,1.9519,1.9568,1.9616,1.9661,1.9697,1.97,1.9751,1.9825,1.9868,1.9955,2.0026,2.009,2.0115,2.0095,2.0094,2.0115,2.0118,2.0112,2.0116,1.9873,2.0089,2.0087,2.0086,2.0085,2.0084,1.9534,1.9592,1.9633,1.9699,1.9733,1.9776,1.9832,1.985,1.9911,1.9981,1.9976,2.0058,2.0101,2.0185,2.0215,2.0279,2.0252,2.0283,2.029,2.0298,2.0305,2.0101,2.0291,2.0291,2.029,2.029,2.0289,0,1.9722,1.9746,1.9807,1.9871,1.9923,1.9898,1.9946,1.9993,2.0064,2.0106,2.0161,2.0246,2.0314,2.0341,2.0408,2.0454,2.0446,2.0472,2.0468,2.0475,2.0325,2.0301,2.0477,2.0477,2.0477,2.0477,2.0476,2.0476,1.9826,1.9922,1.9927,2.0041,2.0065,2.0143,2.0173,2.0213,2.0246,2.0341,2.0397,2.0413,2.0449,2.0518,2.058,2.0586,2.0612,2.0641,2.0644,2.0504,2.0485,2.0467,2.0444,2.0647,2.0647,2.0787,2.0789,2.079]},{"header":{"parameterUnit":"m.s-1","parameterCategory":1,"la1":30.2991,"la2":30.254,"lo1":-89.0895,"lo2":-89.0444,"dy":0.0017,"dx":0.0017,"nx":28,"ny":28,"refTime":"2025-06-20T03:00:00:Z","depth":0,"parameterNumber":3,"parameterNumberName":"V-component_of_WINDS"},"data":[0,0,0,0,0,0,0,0,0,0,0,0,0,0,0,0,0,0,0,0,0,0,0,0,0,0,0,0,0,0,0,0,0,0,0,0,0,0,0,0,0,0,0,0,0,0,0,0,0,0,0,0,0,0,0,0,0,0,-0.9759,-0.976,0,-0.9795,-0.9796,-0.9796,-0.9804,-0.9803,-0.9803,-0.9803,-0.9841,-0.9842,-0.9843,0,0,0,0,0,0,0,0,0,0,0,0,0,-0.9699,-0.97,-0.9759,-0.976,-0.976,-0.9795,-0.9796,-0.9796,-0.9804,-0.9803,-0.9803,-0.9803,-0.984,-0.9842,-0.9843,0,0,0,0,0,0,0,0,0,0,0,0,0,-0.9729,-0.9701,-0.9759,-0.9768,-0.9769,-0.9795,-0.9796,-0.9796,-0.9804,-0.9803,-0.9803,-0.9802,-0.984,-0.9842,-0.9843,-0.9863,0,0,-0.9849,-0.985,0,0,0,0,0,0,0,0,-0.9728,-0.9731,-0.9766,-0.9768,-0.9769,-0.9794,-0.9788,-0.9819,-0.9804,-0.9791,-0.9803,-0.9802,-0.9826,-0.9829,-0.9836,-0.9865,-0.9867,-0.9849,-0.9851,-0.9851,-0.9852,0,0,0,0,0,0,0,-0.9725,-0.973,-0.9774,-0.9767,-0.9769,-0.9771,-0.9775,-0.9794,-0.981,-0.9792,-0.9792,-0.9796,-0.9826,-0.9835,-0.9837,-0.9867,-0.9849,-0.9851,-0.9852,-0.9853,-0.9914,-0.9914,0,0,0,0,0,0,-0.9722,-0.9728,-0.9772,-0.9775,-0.9747,-0.9772,-0.9777,-0.9787,-0.981,-0.9813,-0.9797,-0.9797,-0.9831,-0.9835,-0.9839,-0.9863,-0.9851,-0.9853,-0.9854,-0.9913,-0.9914,-0.9915,0,0,0,0,0,0,-0.972,-0.9725,-0.9771,-0.9752,-0.9758,-0.9774,-0.9785,-0.9788,-0.9796,-0.9814,-0.9817,-0.9802,-0.9831,-0.9836,-0.9857,-0.9865,-0.9854,-0.9856,-0.9913,-0.9914,-0.9914,-0.9912,0,0,0,0,0,0,-0.9719,-0.9725,-0.9732,-0.9752,-0.9759,-0.9788,-0.9786,-0.9789,-0.9799,-0.9799,-0.9819,-0.9822,-0.9831,-0.9854,-0.9859,-0.9867,-0.9857,-0.9912,-0.9913,-0.9914,-0.9912,-0.9913,-0.9914,0,0,0,0,0,-0.9716,-0.9731,-0.9733,-0.9738,-0.9768,-0.9789,-0.9793,-0.9802,-0.9799,-0.9807,-0.9819,-0.9822,-0.9863,-0.9856,-0.9862,-0.987,-0.9912,-0.9913,-0.9914,-0.9911,-0.9912,-0.9914,0,0,0,0,0,0,-0.9712,-0.9733,-0.9736,-0.9756,-0.9771,-0.979,-0.98,-0.9803,-0.9819,-0.9819,-0.983,-0.9835,-0.9855,-0.9865,-0.9857,-0.9891,-0.9887,-0.989,-0.9883,-0.9885,-0.9886,-0.9883,-0.9859,0,0,0,0,0,-0.9713,-0.9728,-0.9746,-0.9763,-0.9769,-0.9783,-0.9793,-0.9799,-0.9814,-0.982,-0.9833,-0.9849,-0.9865,-0.9876,-0.9892,-0.9913,-0.9918,-0.9922,-0.9923,-0.9924,-0.9926,-0.9938,-0.994,-0.9918,-0.9918,-0.9918,0,0,-0.9716,-0.973,-0.9738,-0.9762,-0.9774,-0.9789,-0.9788,-0.9804,-0.9816,-0.9823,-0.9843,-0.9854,-0.9871,-0.9893,-0.9903,-0.9901,-0.9933,-0.9925,-0.9926,-0.9927,-0.9939,-0.9941,-0.9943,-0.9919,-0.9919,-0.9919,0,0,-0.973,-0.9741,-0.9756,-0.9768,-0.9785,-0.9795,-0.9798,-0.9817,-0.9824,-0.9844,-0.985,-0.9864,-0.9892,-0.9905,-0.9915,-0.9933,-0.9936,-0.9938,-0.9943,-0.9955,-0.9957,-0.9958,-0.9964,-0.9966,-0.994,-0.994,-0.994,0,-0.9731,-0.9754,-0.9764,-0.9779,-0.979,-0.9796,-0.9812,-0.9823,-0.9845,-0.9852,-0.9851,-0.9886,-0.9898,-0.9923,-0.9927,-0.9935,-0.994,-0.9935,-0.9955,-0.9957,-0.9959,-0.9965,-0.9967,-0.994,-0.994,-0.994,-0.994,0,-0.9755,-0.977,-0.9781,-0.9801,-0.9813,-0.9828,-0.9841,-0.9852,-0.9857,-0.9866,-0.9887,-0.9903,-0.9922,-0.9928,-0.9934,-0.9954,-0.9952,-0.9953,-0.995,-0.9961,-0.9966,-0.9969,-0.994,-0.994,-0.994,-0.994,0,0,-0.9765,-0.9791,-0.9795,-0.9804,-0.9824,-0.9837,-0.9853,-0.9871,-0.988,-0.9896,-0.9909,-0.9933,-0.9934,-0.9945,-0.9953,-0.9963,-0.9976,-0.9962,-0.9963,-0.9964,-0.9998,-0.9997,-1.0,-0.9979,-0.9979,-0.998,-0.9997,0,-0.9781,-0.9809,-0.9818,-0.9842,-0.9856,-0.9864,-0.9878,-0.9892,-0.9901,-0.9916,-0.9927,-0.9943,-0.9943,-0.995,-0.996,-0.9972,-0.9983,-0.9971,-0.9992,-0.9993,-0.9987,-1.0003,-1.0002,-1.0017,-0.9999,-1.0,-1.0,0,-0.9802,-0.9817,-0.9842,-0.986,-0.9866,-0.9879,-0.9896,-0.991,-0.9926,-0.9933,-0.9945,-0.9952,-0.997,-0.9966,-0.999,-0.9982,-0.9991,-0.9999,-0.9999,-1.0001,-0.9996,-1.0005,-1.0022,-1.0024,-1.0004,-1.0003,-1.0003,0,-0.9807,-0.9833,-0.9851,-0.9859,-0.9881,-0.989,-0.9899,-0.9915,-0.9926,-0.9942,-0.9949,-0.9966,-0.9976,-0.999,-1.0001,-0.9998,-1.0025,-1.0022,-1.0031,-1.0031,-1.0036,-1.0035,-1.0054,-1.0043,-1.0043,-1.0043,-1.0043,0,-0.9822,-0.9837,-0.9854,-0.9865,-0.9882,-0.9893,-0.991,-0.992,-0.9934,-0.9948,-0.9956,-0.9968,-0.9983,-0.9998,-1.0007,-1.0026,-1.003,-1.0036,-1.0038,-1.0035,-1.0034,-1.0041,-1.004,-1.0043,-1.0043,-1.0043,-1.0043,0,-0.983,-0.9842,-0.9862,-0.9881,-0.9886,-0.9898,-0.9914,-0.9926,-0.9936,-0.9953,-0.9958,-0.9974,-0.9992,-1.0004,-1.0028,-1.0034,-1.0054,-1.0057,-1.0048,-1.0049,-1.0057,-1.0056,-1.0081,-1.0084,-1.007,-1.0071,-1.0071,0,-0.9839,-0.985,-0.987,-0.988,-0.9889,-0.9904,-0.9915,-0.9927,-0.9938,-0.9957,-0.9966,-0.9985,-1.0,-1.0028,-1.0042,-1.006,-1.0063,-1.007,-1.0066,-1.0062,-1.0062,-1.0061,-1.0063,-1.0071,-1.0071,-1.0071,-1.0071,0,-0.9853,-0.9858,-0.9873,-0.989,-0.9902,-0.9916,-0.993,-0.9938,-0.9952,-0.9964,-0.9982,-0.9994,-1.0018,-1.0036,-1.0055,-1.0066,-1.0071,-1.0073,-1.0075,-1.0072,-1.0066,-1.0069,-1.005,-1.0072,-1.0072,-1.0072,-1.0072,-1.0072,-0.9861,-0.9872,-0.9887,-0.9904,-0.9915,-0.9928,-0.994,-0.9951,-0.9966,-0.9986,-0.9993,-1.0011,-1.0028,-1.0054,-1.0065,-1.008,-1.008,-1.0084,-1.0085,-1.0086,-1.0086,-1.0064,-1.0084,-1.0084,-1.0084,-1.0084,-1.0084,0,-0.9875,-0.9886,-0.9901,-0.992,-0.9933,-0.9936,-0.9952,-0.9963,-0.9979,-0.9994,-1.0009,-1.003,-1.0047,-1.0063,-1.0081,-1.0091,-1.0093,-1.0095,-1.0094,-1.0097,-1.0085,-1.008,-1.0092,-1.0092,-1.0092,-1.0092,-1.0092,-1.0092,-0.9884,-0.9902,-0.9909,-0.9933,-0.9944,-0.9962,-0.997,-0.9983,-0.9995,-1.0017,-1.0032,-1.0042,-1.0057,-1.0077,-1.0093,-1.0098,-1.0104,-1.0105,-1.011,-1.0098,-1.0097,-1.0096,-1.0092,-1.0106,-1.0106,-1.012,-1.012,-1.012]}]]